Miscellaneous Local Product
Issued by NWS Hastings, NE

Home | Current Version | Previous Version | Graphics & Text | Print | Product List | Glossary On
Versions: 1 2 3 4 5 6 7 8 9 10 11 12 13 14 15 16 17 18 19 20 21 22 23 24 25 26 27 28 29 30 31 32 33 34 35 36 37 38 39 40 41 42 43 44 45 46 47 48 49 50
873
AXUS43 KGID 220702
MISGRI

GID CWA HOURLY WEATHER ROUNDUP
NATIONAL WEATHER SERVICE HASTINGS NE
200 AM CDT SAT JUL 22 2017

NOTE: "FAIR" INDICATES FEW OR NO CLOUDS BELOW 12,000 FEET WITH NO
SIGNIFICANT WEATHER AND/OR OBSTRUCTIONS TO VISIBILITY.

...SOUTH CENTRAL NEBRASKA...

CITY           SKY/WX    TMP DP  RH WIND       PRES   REMARKS
GRAND ISLAND   CLOUDY    74  71  91 NW7       29.81R
HASTINGS       CLOUDY    79  74  84 W3        29.81S
KEARNEY        CLOUDY    76  72  87 CALM      29.83
ORD            CLOUDY    71  67  87 N3        29.83R
YORK           PTCLDY    75  75 100 NW5       29.77S
AURORA         CLOUDY    75  73  92 NW7       29.79R
LEXINGTON      PTCLDY    78  70  76 SW5       29.85R
HOLDREGE       CLOUDY    77  65  65 CALM      29.83S
HEBRON         CLEAR     81  64  54 SW7       29.78S

...NEBRASKA PANHANDLE...

CITY           SKY/WX    TMP DP  RH WIND       PRES   REMARKS
CHADRON        CLOUDY    69  51  52 CALM      30.00R
ALLIANCE       CLOUDY    68  56  65 SW6       30.05R
SCOTTSBLUFF    CLOUDY    73  54  51 SE5       30.08R
SIDNEY         CLOUDY    69  57  65 SW32G41   30.11F

...WESTERN AND NORTH CENTRAL NEBRASKA...

CITY           SKY/WX    TMP DP  RH WIND       PRES   REMARKS
VALENTINE      CLEAR     74  54  49 NW7       29.92R
AINSWORTH      PTCLDY    75  67  75 NW6       29.92R
ONEILL         CLEAR     72  69  91 W5        29.85R
BROKEN BOW     CLOUDY    71  67  87 NE3       29.87R
IMPERIAL       MOCLDY    72  58  61 NW16      29.98F
NORTH PLATTE   CLOUDY    81  57  43 W17       29.94R
MCCOOK         CLOUDY    80  60  50 W9        29.89R

...EASTERN NEBRASKA...

CITY           SKY/WX    TMP DP  RH WIND       PRES   REMARKS
NORFOLK        PTCLDY    74  67  78 W5        29.78R
SO SIOUX CITY  CLOUDY    78  77  96 NE8       29.76R
TEKAMAH        CLOUDY    80  78  94 N12       29.72R
COLUMBUS       CLOUDY    74  70  87 CALM      29.78R
ALBION         PTCLDY    71  69  93 NW5       29.81R
OMAHA EPPLEY   CLOUDY    85  69  58 SE8       29.72R
OFFUTT AFB     CLEAR     78  69  75 CALM      29.72S
MILLARD        CLOUDY    87  70  56 SW3       29.73R HX  92
LINCOLN        CLEAR     79  67  66 S12       29.74S
NEBRASKA CITY  PTCLDY    84  70  61 SW14      29.74S
BEATRICE       CLEAR     85  68  57 S13       29.76S
FALLS CITY     NOT AVBL

...NORTHERN KANSAS...

CITY           SKY/WX    TMP DP  RH WIND       PRES   REMARKS
GOODLAND       CLOUDY    73  58  59 NW22G29   30.00S
HILL CITY      CLEAR     82  57  42 SW6       29.86S
NORTON         SUNNY     79  52  38 S7        29.85
PHILLIPSBURG   CLEAR     79  57  47 CALM      29.83S
SMITH CENTER   CLEAR     70  61  73 NW6       29.83R
HAYS           CLEAR     78  58  49 SW9       29.87R
RUSSELL        CLEAR     85  58  39 SW18      29.85R
CONCORDIA      CLEAR     83  62  49 S14G23    29.80R
SALINA         CLEAR     88  63  43 S15G25    29.83R
TOPEKA         CLEAR     86  73  65 S14G23    29.80F HX  93



USA.gov is the U.S. government's official web portal to all federal, state and local government web resources and services.